Nice, France

4:37 AM CEST on October 17, 2017 (GMT +0200)
Nice-Cote d'Azur

Weather History for LFMN - February, 2013

Change the Weather History Date:

Monday, February 4, 2013

  Actual Average Record
Temperature  
Mean Temperature 46 °F -  
Max Temperature 54 °F 55 °F 61 °F (2017)
Min Temperature 39 °F 41 °F 32 °F (2012)
Degree Days  
Heating Degree Days 18    
Moisture  
Dew Point 28 °F    
Average Humidity 49    
Maximum Humidity 71    
Minimum Humidity 26    
Precipitation  
Precipitation 0.00 in 0.10 in - ()
Sea Level Pressure  
Sea Level Pressure 30.04 in    
Wind  
Wind Speed 11 mph ()    
Max Wind Speed 18 mph    
Max Gust Speed -    
Visibility 9.9 miles    
Events      
Averages and records for this station are not official NWS values.
T = Trace of Precipitation, MM = Missing Value Source: Averaged Metar Reports

Daily Weather History Graph

Daily Weather History Graph

Search for Another Location

Airport or City:

Trip Planner

Search our weather history database for the weather conditions in past years. The results will help you decide how hot, cold, wet, or windy it might be!

Date:

Astronomy

Feb. 04, 2013 Rise Set
Actual Time 7:44 AM CET 5:46 PM CET
Civil Twilight 7:14 AM CET 6:16 PM CET
Nautical Twilight 6:39 AM CET 6:50 PM CET
Astronomical Twilight 6:06 AM CET 7:24 PM CET
Moon 2:03 AM CET (2/4) 11:54 AM CET (2/4)
Length of Visible Light 11h 02m
Length of Day
10h 02m
Last Quarter, 40% of the Moon is Illuminated
Feb 4
Last Quarter
Feb 10
New
Feb 17
First Quarter
Feb 25
Full
Mar 4
Last Quarter

Hourly Weather History & Observations

Time (CET) Temp. Windchill Dew Point Humidity Pressure Visibility Wind Dir Wind Speed Gust Speed Precip Events Conditions
12:00 AM 42.8 °F 36.2 °F 21.2 °F 42% 30.09 in - NNW 12.7 mph - N/A   Clear
12:30 AM 42.8 °F 36.6 °F 21.2 °F 42% 30.09 in - NNW 11.5 mph - N/A   Clear
1:00 AM 43 °F - 20 °F 26% 30.11 in 19 mi NNW 11.5 mph - -  
1:00 AM 42.8 °F 36.6 °F 19.4 °F 39% 30.09 in - NNW 11.5 mph - N/A   Clear
1:30 AM 42.8 °F 36.6 °F 19.4 °F 39% 30.09 in - NNW 11.5 mph - N/A   Clear
2:00 AM 42.8 °F 35.4 °F 19.4 °F 39% 30.09 in - NNW 15.0 mph - N/A   Clear
2:30 AM 42.8 °F 35.8 °F 19.4 °F 39% 30.09 in - NNW 13.8 mph - N/A   Clear
3:00 AM 41.0 °F 33.5 °F 19.4 °F 42% 30.09 in - NNW 13.8 mph - N/A   Clear
3:30 AM 41.0 °F 33.5 °F 19.4 °F 42% 30.09 in - NNW 13.8 mph - N/A   Clear
4:00 AM 41.0 °F 33.5 °F 17.6 °F 39% 30.06 in - NNW 13.8 mph - N/A   Clear
4:30 AM 41.0 °F 33.5 °F 17.6 °F 39% 30.06 in - NNW 13.8 mph - N/A   Clear
5:00 AM 41.0 °F 33.5 °F 17.6 °F 39% 30.04 in - NNW 13.8 mph - N/A   Clear
5:30 AM 41.0 °F 33.5 °F 17.6 °F 39% 30.04 in - NNW 13.8 mph - N/A   Clear
6:00 AM 41.0 °F 33.1 °F 17.6 °F 39% 30.01 in - NNW 15.0 mph - N/A   Clear
6:30 AM 41.0 °F 33.1 °F 17.6 °F 39% 30.01 in - NNW 15.0 mph - N/A   Clear
7:00 AM 40 °F - 18 °F 27% 30.02 in 19 mi NNW 13.8 mph - -   Clear
7:00 AM 39.2 °F 31.6 °F 17.6 °F 42% 30.01 in - NNW 12.7 mph - N/A   Clear
7:30 AM 41.0 °F 34.3 °F 17.6 °F 39% 30.01 in - NNW 11.5 mph - N/A   Clear
8:00 AM 41.0 °F 34.3 °F 17.6 °F 39% 30.01 in - NNW 11.5 mph - N/A   Clear
8:30 AM 41.0 °F 34.7 °F 17.6 °F 39% 30.01 in - NNW 10.4 mph - N/A   Clear
9:00 AM 42.8 °F 40.1 °F 17.6 °F 36% 30.01 in - NNW 4.6 mph - N/A   Clear
9:30 AM 46.4 °F 45.2 °F 17.6 °F 32% 30.01 in - North 3.5 mph - N/A   Clear
10:00 AM 48.2 °F - 24.8 °F 40% 30.01 in - NE 4.6 mph - N/A   Clear
10:30 AM 48.2 °F - 30.2 °F 50% 30.01 in - NE 4.6 mph - N/A   Clear
12:00 PM 51.8 °F - 33.8 °F 50% 30.01 in 6.2 mi East 15.0 mph - N/A   Mostly Cloudy
12:30 PM 53.6 °F - 35.6 °F 51% 30.01 in 6.2 mi East 15.0 mph - N/A   Mostly Cloudy
1:00 PM 53 °F - 36 °F 41% 30.02 in 31 mi East 13.8 mph - -   Clear
1:00 PM 53.6 °F - 35.6 °F 51% 30.01 in - East 13.8 mph - N/A   Clear
1:30 PM 53.6 °F - 37.4 °F 54% 30.01 in - East 15.0 mph - N/A   Clear
2:00 PM 53.6 °F - 37.4 °F 54% 30.01 in - East 17.3 mph - N/A   Clear
2:30 PM 53.6 °F - 39.2 °F 58% 30.01 in - East 16.1 mph - N/A   Clear
3:00 PM 53.6 °F - 39.2 °F 58% 30.01 in - East 18.4 mph - N/A   Clear
3:30 PM 53.6 °F - 39.2 °F 58% 30.01 in - East 17.3 mph - N/A   Clear
4:00 PM 53.6 °F - 39.2 °F 58% 30.01 in - East 13.8 mph - N/A   Clear
4:30 PM 53.6 °F - 39.2 °F 58% 30.01 in - East 15.0 mph - N/A   Clear
5:00 PM 51.8 °F - 37.4 °F 58% 30.01 in - East 15.0 mph - N/A   Clear
5:30 PM 51.8 °F - 39.2 °F 62% 30.01 in - East 13.8 mph - N/A   Clear
6:00 PM 51.8 °F - 37.4 °F 58% 30.04 in - East 13.8 mph - N/A   Clear
6:30 PM 51.8 °F - 37.4 °F 58% 30.04 in - East 11.5 mph - N/A   Clear
7:00 PM 51 °F - 36 °F 46% 30.06 in 31 mi NE 9.2 mph - -   Clear
7:00 PM 51.8 °F - 35.6 °F 54% 30.04 in - NE 10.4 mph - N/A   Clear
7:30 PM 50.0 °F - 37.4 °F 62% 30.06 in - NNW 5.8 mph - N/A   Clear
8:00 PM 48.2 °F - 37.4 °F 66% 30.06 in - NNW 8.1 mph - N/A   Clear
8:30 PM 46.4 °F 42.4 °F 35.6 °F 66% 30.06 in - NW 8.1 mph - N/A   Clear
9:00 PM 46.4 °F 42.4 °F 35.6 °F 66% 30.06 in - NNW 8.1 mph - N/A   Clear
9:30 PM 46.4 °F 41.1 °F 35.6 °F 66% 30.06 in - NW 11.5 mph - N/A   Clear
10:00 PM 44.6 °F 40.7 °F 35.6 °F 71% 30.06 in - NNW 6.9 mph - N/A   Clear
10:30 PM 44.6 °F 39.2 °F 35.6 °F 71% 30.06 in 6.2 mi NNW 10.4 mph - N/A   Mostly Cloudy
11:00 PM 44.6 °F 39.2 °F 35.6 °F 71% 30.06 in 6.2 mi NNW 10.4 mph - N/A   Mostly Cloudy
11:30 PM 44.6 °F 38.8 °F 35.6 °F 71% 30.06 in 6.2 mi NNW 11.5 mph - N/A   Mostly Cloudy